www.pogodaiklimat.ru

Погода и климат >> Архив погоды >> Россия >> Якутия >> Батагай-Алыта


ПОГОДА в Батагай-Алыте

  • Прогноз погоды в Батагай-Алыте
  • Монитор погоды в Батагай-Алыте

АРХИВ ПОГОДЫ в Батагай-Алыте

Время (UTC), дата Ветер
(напр.,м/с)
 
Видим.   Явления Облачность Т
(С)
Тd
(С)
f
(%)
Тe
(С)
Тes
(С)
Комфортность P
(гПа)
Po
(гПа)
Тmin
(С)
Tmax
(С)
R
(мм)
R24
(мм)
S
(см)
03 20.05 ЮЗ 1 50 км 3/0
[Ci fib]
-0.7 -9.9 50 -2 +9 1011.9 951.8
06 20.05 штиль 0 50 км 4/3 1000 м
[Cb cap Ci fib]
+1.7 -9.9 42 +2 +9 1010.5 951.0
09 20.05 С 2 н/о н/о +2.1 -8.2 46 -0 -0 1010.8 951.3 +3.4
12 20.05 СВ 2 н/о н/о -0.4 -7.1 61 -4 -4 1012.3 952.3
15 20.05 Ю 1 н/о н/о -1.9 -5.9 74 -4 -4 1013.6 953.2
18 20.05 СЗ 1 н/о н/о -4.4 -5.8 90 -7 -7 1014.7 953.6
21 20.05 З 1 н/о н/о -1.6 -5.1 77 -4 -4 1014.7 954.2 -7.2
00 21.05 З 3 50 км 3/3 1000 м
[Cu med, cong]
+0.9 -8.9 48 -3 +1 1014.5 954.5 -7.2 6
03 21.05 СЗ 2 50 км 3/3 1000 м
[Cu med, cong]
+2.9 -9.4 40 +1 +8 1014.1 954.6
06 21.05 З 3 50 км 3/3 1500 м
[Sc]
+4.5 -9.3 36 +2 +7 1013.5 954.4
09 21.05 ЮЗ 3 н/о н/о +5.5 -8.4 36 +3 +3 1013.1 954.2 +6.5
12 21.05 С 2 н/о н/о +3.8 -5.7 50 +2 +2 1013.2 953.9
15 21.05 СЗ 2 н/о н/о -3.2 -7.0 75 -7 -7 1014.6 953.8
18 21.05 З 2 н/о н/о -7.0 -8.9 86 -11 -11 1015.3 953.6
21 21.05 З 3 н/о н/о -2.9 -8.0 68 -8 -8 1013.8 953.1 -7.6
00 22.05 С 1 50 км ясно -4.5 -7.1 82 -7 +2 1010.4 951.4 -7.6 3
03 22.05 Ю 3 50 км ясно +7.6 -6.5 36 +6 +14 1007.3 949.1
06 22.05 СВ 3 н/о н/о +9.5 -4.8 36 +8 +8 1004.3 946.7
09 22.05 С 5 н/о н/о +8.1 -3.7 43 +5 +5 1002.9 945.1 +10.0
12 22.05 СВ 3
{10}
н/о н/о +5.0 -3.6 54 +2 +2 1002.0 943.7
15 22.05 СЗ 2 н/о н/о +3.4 -4.1 58 +1 +1 1001.1 942.5
18 22.05 З 3 н/о н/о -0.2 -4.4 73 -5 -5 1000.9 941.5
21 22.05 З 3 н/о н/о +2.3 -3.7 65 -1 -1 999.7 940.9 -0.9
00 23.05 С 2 50 км 3/0
[Ci fib]
+7.0 -3.3 48 +5 +12 997.2 939.5 -0.9 1
03 23.05 СВ 2 50 км 3/0
[Ci fib]
+9.9 -2.5 42 +9 +19 опасность
простуды
995.5 938.5
06 23.05 СВ 2 50 км ясно +12.2 -2.1 37 +12 +20 994.4 937.9
09 23.05 С 5 н/о н/о +8.3 -1.2 51 +5 +5 995.3 938.0 +12.5
12 23.05 С 5
{10}
н/о н/о +4.6 -1.2 66 0 0 995.3 939.3
15 23.05 С 1 н/о н/о +2.2 -3.4 66 +1 +1 999.3 940.5
18 23.05 СЗ 3 н/о н/о -1.2 -2.6 90 -6 -6 1001.2 941.6
21 23.05 С 2 н/о н/о -0.2 -1.2 93 -4 -4 1001.5 942.1 -1.3
00 24.05 СВ 3 50 км 4/4 1000 м
[Sc]
+3.3 -2.2 67 -0 +3 1000.2 941.6 -1.3
03 24.05 С 2 50 км 3/3 1500 м
[Cu hum]
+5.1 +3.2 88 +2 +10 опасность
простуды
999.5 941.3
06 24.05 СВ 2 50 км 4/0
[Ci fib]
+8.0 +1.4 63 +6 +14 997.8 940.3
09 24.05 В 3 н/о н/о +9.6 +1.8 58 +8 +8 997.2 940.1 +10.4
12 24.05 В 2 н/о н/о +7.9 +1.3 63 +6 +6 998.2 940.7
15 24.05 СЗ 2 н/о н/о +0.9 -0.4 91 -3 -3 1000.4 941.4
18 24.05 СЗ 2 н/о н/о -1.2 -1.4 99 -5 -5 1001.9 942.3
21 24.05 штиль 0 н/о н/о +3.5 +0.2 79 +3 +3 1000.9 942.4 -1.2
00 25.05 В 2 н/о н/о +9.1 +1.9 61 +8 +8 999.8 942.5
03 25.05 Ю 2 н/о н/о +13.5 +1.9 45 +13 +13 998.9 942.5
06 25.05 С 4 н/о н/о +12.0 +2.9 54 +10 +10 1000.1 943.3
09 25.05 С 3 н/о н/о +6.2 +1.2 70 +3 +3 1003.5 945.4 +14.4
12 25.05 С 4 н/о н/о +2.5 -0.5 81 -2 -2 1006.8 947.7
15 25.05 С 3 н/о н/о -2.5 -2.3 100 -8 -8 1010.7 950.3
18 25.05 С 3 н/о н/о -3.9 -3.7 100 -10 -10 1013.0 952.2
21 25.05 С 3 н/о н/о -2.8 -3.2 97 -8 -8 1014.6 953.9 -3.9
00 26.05 СВ 2 н/о н/о +0.1 -2.2 84 -3 -3 1015.2 955.1
03 26.05 В 3 н/о н/о +5.2 -1.0 64 +2 +2 1014.2 955.2
06 26.05 СВ 3 н/о н/о +7.7 -0.7 55 +5 +5 1013.7 955.2
09 26.05 В 3 н/о н/о +9.1 -4.5 38 +7 +7 1013.7 955.5 +9.1
12 26.05 СВ 2 н/о н/о +7.3 -1.4 54 +6 +6 1015.1 956.5
15 26.05 С 1 н/о н/о +1.9 -1.9 76 0 0 1017.2 957.4
18 26.05 СЗ 1 н/о н/о -1.2 -2.4 92 -3 -3 1018.4 957.9
21 26.05 ЮВ 1 н/о н/о +5.1 -2.2 59 +4 +4 1017.2 958.0 -1.5
00 27.05 Ю 3 50 км 3/3 1500 м
[Sc]
+7.7 -21.2 11 +6 +10 1015.9 957.3 -1.5

 

Местоположение метеостанции Батагай-Алыта (Якутия, Россия): широта 67.78 долгота 130.40 высота над уровнем моря 491 м.

В архиве по умолчанию представлена погода в Батагай-Алыте за последнюю неделю. Архивные данные за месяц целиком и за предыдущие месяцы, начиная с января 2011 года, Вы можете получить, выбрав интересующий диапазон дат из раскрывающегося списка и нажав кнопку "Ввод!".


*Определитесь, кто Вы:
робот инопланетянин человек

Внимание! Время в таблицах - всемирное. Для получения местного времени необходимо прибавить поправку, которая равна 9 ч.

Смотрите также архив погоды в соседних городах и на ближайших метеорологических станциях:

Погода в Екюччю (Якутия, Россия) (124 км)
Погода в Верхоянске (Якутия, Россия) (129 км)
Погода в Батагае (Якутия, Россия) (178 км)
Погода в Себян-Кюеле (Якутия, Россия) (276 км)
Погода в Джарджане (Якутия, Россия) (284 км)
Погода в Усть-Чарках (Якутия, Россия) (288 км)
Погода в Усть-Куйге (Якутия, Россия) (323 км)
Погода в Жиганске (Якутия, Россия) (324 км)
Погода в Кюсюре (Якутия, Россия) (343 км)
Погода в Иэме (Якутия, Россия) (365 км)

Пояснения к столбцам:

Ветер - указаны скорость ветра в м/с - средняя за 10 мин, порывы в срок и между сроками (в фигурных скобках) и направление, откуда дует ветер: С - северный, СВ - северо-восточный, В - восточный, ЮВ - юго-восточный, Ю - южный, ЮЗ - юго-западный, З - западный, СЗ - северо-западный.
Видимость - горизонтальная дальность видимости в метрах или километрах. При видимости от 1 до 10 км при отсутствии осадков обычно наблюдается дымка, при ухудшении видимости до 1 км и менее - туман. В сухую погоду видимость может ухудшаться дымом, пылью или мглою.
Явления - указаны атмосферные явления, наблюдавшиеся в срок или в последний час перед сроком; фигурными скобками обозначены явления, наблюдавшиеся между сроками (за 1-3 часа до срока); квадратными скобками обозначены град или гололедные отложения с указанием их диаметра в мм.
Облачность - указаны через наклонную черту общая и нижняя облачность в баллах и высота нижней границы облаков в метрах; квадратными скобками обозначены формы облаков: Ci - перистые, Cs - перисто-слоистые, Cc - перисто-кучевые, Ac - высококучевые, As - высокослоистые, Sc - слоисто-кучевые, Ns - слоисто-дождевые, Cu - кучевые, Cb - кучево-дождевые. Подробнее классификацию облаков см. в Атласе облаков (PDF).
T - Температура воздуха - температура, измеренная на высоте 2 м над землей.
Td - Температура точки росы - температура, при понижении до которой содержащийся в воздухе водяной пар достигнет насыщения.
f - Относительная влажность воздуха - влажноcть воздуха, измеренная на высоте 2 м над землей.
Te - Эффективная температура - температура, которую ощущает одетый по сезону человек в тени. Характеристика душности погоды. При расчете учитывается влияние влажности воздуха и скорости ветра на теплоощущения человека.
Tes - Эффективная температура на солнце - температура, которую ощущает человек, с поправкой на солнечный нагрев. Характеристика знойности погоды. Зависит от высоты солнца над горизонтом, облачности и скорости ветра. Ночью, в пасмурную погоду, а также при ветре 12 м/с и более поправка равна нулю.
P - Атмосферное давление - приведенное к уровню моря атмосферное давление.
Po - Атмосферное давление - измеренное на уровне метеостанции атмосферное давление.
Tmin - Минимальная температура - минимум температуры воздуха на высоте 2 м над землей.
Tmax - Максимальная температура - максимум температуры воздуха на высоте 2 м над землей.
R - Количество осадков - Количество выпавших осадков за период времени, мм. При наведении курсора мыши на число - период времени, за который выпало указанное количество осадков.
R24 - Количество осадков - Количество выпавших осадков за 24 часа, мм.
S - Снежный покров - Высота снежного покрова, см. При наведении курсора мыши на число - состояние снежного покрова и степень покрытия местности в баллах.